Home   Weather   Herzogenrath   Past weeks

Flag for Germany Past Weather in Herzogenrath, North Rhine-Westphalia, Germany — Yesterday and Last 2 Weeks

Now
48 °F

Overcast.


Feels Like: 45 °F
Forecast: 45 / 47 °F
Wind: 6 mph from Southwest

Location: Maastricht Airport Zuid Limburg

Current Time: Dec 10, 2016 at 3:51:05 pm

Latest Report: Dec 10, 2016 at 2:00 pm


Visibility: 7 mi

Pressure: 30.24 "Hg

Humidity: 82%

Dew Point: 42 °F

Location of HerzogenrathLocation

Past Weather in Herzogenrath — Graph

°F

Herzogenrath Temperature Yesterday

Maximum temperature yesterday: 55 °F (at 2:00 pm)
Minimum temperature yesterday: 44 °F (at 12:00 am)
Average temperature yesterday: 48 °F

High & Low Weather Summary for the Past Weeks

 TemperatureHumidityPressure
High55 °F (Dec 9, 2:00 pm)100% (Dec 2, 1:00 am)30.57 "Hg (Dec 2, 1:00 am)
Low23 °F (Nov 30, 4:00 am)56% (Nov 30, 3:00 pm)30.09 "Hg (Nov 25, 3:00 pm)
Average38 °F83%30.34 "Hg
* Reported Nov 25 2:00 pm — Dec 10 2:00 pm, Herzogenrath, Weather by CustomWeather, © 2016

Note: Actual official high and low records may vary slightly from our data, if they occured in-between our weather recording intervals... More about our weather records

Advertising

Herzogenrath Weather History for the Previous 24 Hours

Scroll right to see more
 ConditionsComfort  
Time TempWeatherWind HumidityBarometerVisibility
2:00 pm
Sat, Dec 10
48 °FOvercast.6 mph82%30.24 "Hg7 mi
1:00 pm48 °FPartly sunny.6 mph80%30.26 "Hg8 mi
12:00 pm47 °FOvercast.7 mph80%30.27 "Hg9 mi
11:00 am46 °FOvercast.6 mph79%30.27 "Hg11 mi
10:00 am44 °FScattered clouds.7 mph83%30.27 "Hg12 mi
9:00 am42 °FScattered clouds.6 mph86%30.27 "Hg9 mi
8:00 am41 °FClear.3 mph88%30.28 "Hg7 mi
7:00 am42 °FClear.6 mph86%30.27 "Hg8 mi
6:00 am42 °FPassing clouds.6 mph87%30.26 "Hg8 mi
5:00 am43 °FPassing clouds.7 mph86%30.27 "Hg8 mi
4:00 am44 °FClear.6 mph84%30.28 "Hg9 mi
3:00 am43 °FPassing clouds.6 mph85%30.30 "Hg9 mi
2:00 am44 °FPassing clouds.6 mph82%30.31 "Hg10 mi
1:00 am45 °FClear.5 mph83%30.32 "Hg10 mi
12:00 am46 °FClear.7 mph82%30.33 "Hg9 mi
11:00 pm
Fri, Dec 9
46 °FClear.5 mph82%30.34 "Hg9 mi
10:00 pm46 °FClear.7 mph83%30.35 "Hg9 mi
8:00 pm47 °FOvercast.6 mph78%30.36 "Hg11 mi
7:00 pm48 °FPassing clouds.5 mph74%30.37 "Hg12 mi
6:00 pm49 °FClear.5 mph70%30.37 "Hg15 mi
5:00 pm51 °FOvercast.5 mph66%30.37 "Hg18 mi
4:00 pm53 °FOvercast.5 mph62%30.37 "Hg19 mi
3:00 pm55 °FOvercast.6 mph58%30.36 "Hg22 mi
Weather by CustomWeather, © 2016

See weather overviewHow to use our weather pages